Location: Rottenacker
(48.2350°N, 9.6886°E)
Time: 03:48:04
(UTC+01:00)

ISS - Pass Details

Date: 05 January 2018
Orbit: 402 x 407 km, 51.6° (Epoch: 21 January)

Event Time Altitude Azimuth Distance (km) Brightness Sun altitude
Exits shadow 06:03:18 44° 21° (NNE) 574 -3.1 -20.4°
Drops below altitude 10° 06:06:03 10° 68° (ENE) 1,471 -0.2 -20.0°
Sets 06:08:11 0° 74° (ENE) 2,334 1.1 -19.6°
